World > North America > United States > California

La Jolla, California Regional Weather

Lat: 32.85N, Lon: 117.27W
Wx Zone: CAZ043Web Search

Helpful Tip: Abbreviated, 7 Day, 14 Day Forecasts. There is a weather forecast for every taste.

Feedback
La Jolla Weather Map
UTC Time: 11/26/2020, 01:07
Your Time:

La Jolla, CA Regional Weather

Expires:202011260100;;400355
ASUS46 KSGX 260011
RWRSGX

SAN DIEGO HOURLY WEATHER ROUNDUP
NATIONAL WEATHER SERVICE SAN DIEGO CA
400 PM PST WED NOV 25 2020

NOTE: "FAIR" INDICATES FEW OR NO CLOUDS BELOW 12,000 FEET WITH NO 
SIGNIFICANT WEATHER AND/OR OBSTRUCTIONS TO VISIBILITY.


CAZ042-043-060-061-PZZ750-775-260100-

GREATER SAN DIEGO AREA
  
CITY           SKY/WX    TMP DP  RH WIND       PRES   REMARKS
SAN DIEGO AP   CLEAR     64  52  64 NW7       30.06R                  
CHULA VISTA      N/A     64  55  74 W6        29.95S                  
BROWN FIELD    CLEAR     62  54  74 W8        30.04S                  
MIRAMAR MCAS   CLEAR     62  54  74 W7        30.04S                  
MONTGOMERY FLD CLEAR     62  52  69 NW9       30.04S                  
GILLESPIE FLD  CLEAR     66  50  55 W7        30.03S                  

$$

NORTH SAN DIEGO COUNTY
  
CITY           SKY/WX    TMP DP  RH WIND       PRES   REMARKS
CAMP PENDLETON PTCLDY    62  50  64 VRB6      30.04R                  
OCEANSIDE AP   CLEAR     61  55  81 W6        30.04R                  
VISTA            N/A     62  55  78 W2        30.02S                  
CARLSBAD       CLEAR     60  51  72 SW7       30.04R                  
ENCINITAS        N/A     63  56  77 NW5         N/A                   
FALLBROOK      FAIR      61  54  77 SW7       30.05R                  
SAN MARCOS       N/A     62  54  74 NW5       30.08R                  
POWAY            N/A     64  53  66 W2        30.06R                  

$$

EAST SAN DIEGO COUNTY
  
CITY           SKY/WX    TMP DP  RH WIND       PRES   REMARKS
RAMONA         CLEAR     61  49  64 W9        30.04R                  
LA MESA          N/A     63  54  71 W3        29.99S                  

$$

ORANGE COUNTY AND THE LOS ANGELES BASIN
  
CITY           SKY/WX    TMP DP  RH WIND       PRES   REMARKS
JOHN WAYNE AP  CLEAR     63  52  67 SW7       30.03S                  
LAKE FOREST FR   N/A     63  49  61 SW3       29.91S                  
LOS ALAMITOS   PTCLDY    62  55  79 SW9       30.03S                  
FULLERTON      CLEAR     65  52  62 SW6       30.02S                  
LONG BEACH     CLEAR     63  52  67 S8        30.03S                  
L.A. AP        PTCLDY    60  52  74 SW13      30.04S                  
L.A. DOWNTOWN  CLEAR     63  51  65 W5        30.03R                  

$$

THE INLAND EMPIRE
  
CITY           SKY/WX    TMP DP  RH WIND       PRES   REMARKS
CORONA         CLEAR     66  50  56 W7        30.02F                  
UPLAND AP      FAIR      63  45  51 W8        30.03S                  
CHINO          CLEAR     68  47  46 SW12      30.03S                  
ONTARIO        PTCLDY    66  43  43 W8        30.02S                  
SAN BERNARDINO CLEAR     68  32  26 CALM      30.02F                  
RIVERSIDE AP   CLEAR     67  44  43 W7        30.02S                  
MORENO VALLEY    N/A     68  43  40 NW3       29.95S                  
HORSETHIEF CYN   N/A     65  40  41 W5        30.02S                  
PERRIS           N/A     67  37  33 CALM      30.03S                  
LAKE ELSINORE    N/A     66  45  47 NW1       29.97R                  
HEMET AP       FAIR      66  43  43 SW10      30.02S                  
FRENCH VALLEY  FAIR      64  46  52 CALM      30.03S                  
TEMECULA         N/A     66  53  62 SW3       30.00R                  

$$

SAN BERNARDINO AND RIVERSIDE COUNTY MOUNTAINS
  
CITY           SKY/WX    TMP DP  RH WIND       PRES   REMARKS
BIG BEAR AP    CLEAR     45  25  45 W9        30.11F                  
ANGELUS OAKS     N/A     47  29  50 CALM      30.01S                  
GARNER VALLEY    N/A     55  31  40 W2        29.92S                  
TORO PEAK        N/A     39  11  32 NW24        N/A  WCI  28          

$$

SOUTHERN DESERT INCLUDING THE COACHELLA VALLEY
  
CITY           SKY/WX    TMP DP  RH WIND       PRES   REMARKS
PALM SPRINGS   CLEAR     70  28  21 E7        29.99S                  
THOUSAND PALMS   N/A     71  30  22 E6        29.94F                  
THERMAL        NOT AVBL                                               
BORREGO AP     FAIR      70  19  14 SE6       29.98S                  
BLYTHE         CLEAR     70  21  15 CALM      29.99S                  
IMPERIAL AP    CLEAR     72  26  18 E5        29.96F                  
YUMA AZ        CLEAR     73  21  14 CALM      29.98F                  

$$

UPPER DESERT
  
CITY           SKY/WX    TMP DP  RH WIND       PRES   REMARKS
VICTORVILLE AP CLEAR    N/A N/A N/A W17       30.01                   
PALMDALE       CLEAR     63  28  26 W18       30.02S                  
LANCASTER      CLEAR     59  30  33 W23G32    30.03                   
GRAY BUTTE AP  FAIR      61  29  29 NW14      29.99R                  
DAGGETT        CLEAR     69  25  19 W15G21    29.95F                  
29 PALMS N     CLEAR     64  20  18 SE9       30.04F                  
NEEDLES        CLEAR     68  18  14 S6        29.98F                  

$$

REGIONAL REPORTS
  
CITY           SKY/WX    TMP DP  RH WIND       PRES   REMARKS
SANTA BARBARA  CLEAR     59  53  80 SE6       30.02S                  
SANDBERG       CLEAR     46  37  71 N18G28    30.08S HAZE             
LAS VEGAS NV   PTCLDY    59  22  24 NE6       29.98F                  
PHOENIX AZ     CLEAR     70  19  14 S5        29.98F                  
TIJUANA          N/A    N/A N/A N/A MISG        N/A                   
ENSENADA NW      N/A     63  32  31 W14       30.01S                  

$$

OFFSHORE ISLANDS
  
CITY           SKY/WX    TMP DP  RH WIND       PRES   REMARKS
CATALINA ARPT  CLEAR     56  49  77 SW9       30.05F                  
SAN CLEMENTE I PTCLDY    61  51  70 SW10      30.06F                  
SAN NICOLAS IS PTCLDY    59  49  69 NW7       30.04F                  

$$

MARINE AND OFFSHORE BUOY REPORTS
  
STATION/POSITION SKY/WX   TEMP    WIND        PRES    VSBY  SWELL
                          AIR SEA DIR/SP/G                  HT/PER/DIR
                          (F)     (DEG/KT/KT) (MB)    (MI)  (FT/S/D)
TANNER BANKS               59     320/ 14/ 17 1017.9F         7/290/11
S CLEMENTE BASIN           61                 1017.4F         3/270/13
SAN NICOLAS IS.               58                N/A           5/310/13
SO. S. ROSA ISLA           55 58              1018.2F         5/310/13
W. S. BARBARA CH                  310/ 21/ 27 1017.5F         7/300/12
M. S. BARBARA CH           59 59  180/  2/  4 1017.1F         5/280/14
S. MONICA BASIN            59 60  210/  6/  6 1017.2S         3/250/11
S PEDRO CHANNEL               61                N/A           2/270/13
OCEANSIDE OFFSHR              63                N/A           2/230/13
TORREY PINES OTR              62                N/A           2/270/13
SAN DIEGO BAY                 63              1017.2S
IMPERIAL BEACH                60                N/A           2/270/13
POINT LOMA SOUTH              64                N/A           3/280/13

$$

  

SKY/WX - Weather  TMP - Temperature  DP - Dew Point  RH - Relative Humidity
WIND - Wind Direction/Speed PRES - Barometric Pressure VSB - Visibility
WCI - Wind Chill Index E13G22 Wind - East Wind 13 mph/Gusts of 22 mph